sat.trackr.live / text

‹ back to catalog

2025-180D

NORAD 65262 · 2025-180D

PAYLOAD ACTIVE UNKNOWN

§ Identity

Operator
Country
TBD
Launch date
2025-08-19
Launch site
JSC
Launch vehicle
Mass (kg)
RCS (m²)

External: N2YO · Heavens-Above · Gunter

§ Orbital elements

Epoch: 2026-09-20T22:05:35.475936Z

Period
94.98 min
Inclination
97.5376°
Eccentricity
0.0013665
Mean motion
15.16064672 rev/d
Perigee alt
508.3 km
Apogee alt
527.2 km
Semi-major
6,895.9 km
B*
1.4361e-4
RAAN
30.3232°
Arg perigee
354.9829°
Mean anomaly
5.1264°
Rev number
6,016

§ Raw data

2025-180D1 65262U 25180D   26263.92054949  .00002701  00000+0  14361-3 0  99952 65262  97.5376  30.3232 0013665 354.9829   5.1264 15.16064672 60163

JSON: /api/v1/satellites/65262 · /tle

For live sub-satellite position, see the globe view (requires WebGL).

§ Visibility from observer

Set your observer location to see the next 7 days of passes ≥ 10°. The values pass through the URL so the page stays shareable.

No JS? Fill the form by hand. The geolocation button needs JavaScript.

§ Radio — SatNOGS DB

ModeDescriptionDownlinkUplink
FM S-band telemetry 2.288 GHz

1 transmitter · refreshed weekly from db.satnogs.org